2023/08/20 00:00:00, 0.0,22.7
2023/08/20 00:10:00, 0.0,22.2
2023/08/20 00:20:00, 0.0,22.5
2023/08/20 00:30:00, 0.0,22.2
2023/08/20 00:40:00, 0.0,22.3
2023/08/20 00:50:00, 0.0,22.5
2023/08/20 01:00:00, 0.0,22.6
2023/08/20 01:10:00, 0.0,22.1
2023/08/20 01:20:00, 0.0,22.1
2023/08/20 01:30:00, 0.0,22.3
2023/08/20 01:40:00, 0.0,22.1
2023/08/20 01:50:00, 0.0,22.2
2023/08/20 02:00:00, 0.0,21.9
2023/08/20 02:10:00, 0.0,22.1
2023/08/20 02:20:00, 0.0,22.0
2023/08/20 02:30:00, 0.0,21.9
2023/08/20 02:40:00, 0.0,21.9
2023/08/20 02:50:00, 0.0,21.8
2023/08/20 03:00:00, 0.0,21.5
2023/08/20 03:10:00, 0.0,22.0
2023/08/20 03:20:00, 0.0,22.0
2023/08/20 03:30:00, 0.0,21.8
2023/08/20 03:40:00, 0.0,21.7
2023/08/20 03:50:00, 0.0,21.9
2023/08/20 04:00:00, 0.0,21.4
2023/08/20 04:10:00, 0.0,21.8
2023/08/20 04:20:00, 0.0,21.5
2023/08/20 04:30:00, 0.0,21.1
2023/08/20 04:40:00, 0.0,21.7
2023/08/20 04:50:00, 0.0,21.6
2023/08/20 05:00:00, 0.0,21.7
2023/08/20 05:10:00, 0.0,20.9
2023/08/20 05:20:00, 0.0,21.5
2023/08/20 05:30:00, 0.0,21.4
2023/08/20 05:40:00, 0.0,21.6
2023/08/20 05:50:00, 0.0,21.4
2023/08/20 06:00:00, 0.0,22.0
2023/08/20 06:10:00, 0.0,23.0
2023/08/20 06:20:00, 0.0,26.5
2023/08/20 06:30:00, 0.0,27.9
2023/08/20 06:40:00, 0.0,28.6
2023/08/20 06:50:00, 0.0,29.6
2023/08/20 07:00:00, 0.0,30.8
2023/08/20 07:10:00, 0.0,31.7
2023/08/20 07:20:00, 0.0,31.2
2023/08/20 07:30:00, 0.0,32.0
2023/08/20 07:40:00, 0.0,34.3
2023/08/20 07:50:00, 0.0,36.3
2023/08/20 08:00:00, 0.0,35.3
2023/08/20 08:10:00, 0.0,36.7
2023/08/20 08:20:00, 0.0,36.7
2023/08/20 08:30:00, 0.0,37.1
2023/08/20 08:40:00, 0.0,36.9
2023/08/20 08:50:00, 0.0,35.5
2023/08/20 09:00:00, 0.0,35.5
2023/08/20 09:10:00, 0.0,35.2
2023/08/20 09:20:00, 0.1,34.7
2023/08/20 09:30:00, 0.3,34.2
2023/08/20 09:40:00, 0.2,34.9
2023/08/20 09:50:00, 0.0,34.9
2023/08/20 10:00:00, 0.2,35.6
2023/08/20 10:10:00, 0.7,36.0
2023/08/20 10:20:00, 0.9,35.7
2023/08/20 10:30:00, 0.8,36.0
2023/08/20 10:40:00, 0.8,35.9
2023/08/20 10:50:00, 0.8,36.6
2023/08/20 11:00:00, 0.3,36.7
2023/08/20 11:10:00, 0.8,36.7
2023/08/20 11:20:00, 1.0,37.3
2023/08/20 11:30:00, 1.1,37.1
2023/08/20 11:40:00, 1.0,36.6
2023/08/20 11:50:00, 0.5,35.7
2023/08/20 12:00:00, 0.7,36.0
2023/08/20 12:10:00, 0.9,36.3
2023/08/20 12:20:00, 0.9,37.2
2023/08/20 12:30:00, 0.3,34.8
2023/08/20 12:40:00, 0.3,35.3
2023/08/20 12:50:00, 0.3,35.3
2023/08/20 13:00:00, 0.5,36.0
2023/08/20 13:10:00, 0.9,36.7
2023/08/20 13:20:00, 0.5,35.2
2023/08/20 13:30:00, 0.0,33.6
2023/08/20 13:40:00, 0.0,32.0
2023/08/20 13:50:00, 0.0,31.5
2023/08/20 14:00:00, 0.0,31.6
2023/08/20 14:10:00, 0.6,33.3
2023/08/20 14:20:00, 0.6,34.3
2023/08/20 14:30:00, 0.3,33.7
2023/08/20 14:40:00, 0.5,34.7
2023/08/20 14:50:00, 0.0,33.1
2023/08/20 15:00:00, 0.0,32.1
2023/08/20 15:10:00, 0.0,31.5
2023/08/20 15:20:00, 0.0,31.0
2023/08/20 15:30:00, 0.0,29.4
2023/08/20 15:40:00, 0.4,29.6
2023/08/20 15:50:00, 0.0,28.8
2023/08/20 16:00:00, 0.0,29.0
2023/08/20 16:10:00, 0.0,28.7
2023/08/20 16:20:00, 0.0,29.6
2023/08/20 16:30:00, 0.0,29.3
2023/08/20 16:40:00, 0.0,29.9
2023/08/20 16:50:00, 0.0,29.2
2023/08/20 17:00:00, 0.0,28.6
2023/08/20 17:10:00, 0.0,28.1
2023/08/20 17:20:00, 0.0,28.6
2023/08/20 17:30:00, 0.0,28.7
2023/08/20 17:40:00, 0.0,28.9
2023/08/20 17:50:00, 0.0,29.0
2023/08/20 18:00:00, 0.0,28.4
2023/08/20 18:10:00, 0.0,27.7
2023/08/20 18:20:00, 0.0,27.6
2023/08/20 18:30:00, 0.0,27.5
2023/08/20 18:40:00, 0.0,27.4
2023/08/20 18:50:00, 0.0,27.2
2023/08/20 19:00:00, 0.0,26.8
2023/08/20 19:10:00, 0.0,26.5
2023/08/20 19:20:00, 0.0,26.2
2023/08/20 19:30:00, 0.0,25.8
2023/08/20 19:40:00, 0.0,25.7
2023/08/20 19:50:00, 0.0,25.6
2023/08/20 20:00:00, 0.0,25.6
2023/08/20 20:10:00, 0.0,25.8
2023/08/20 20:20:00, 0.0,25.6
2023/08/20 20:30:00, 0.0,25.4
2023/08/20 20:40:00, 0.0,25.5
